SPKAS EPZP-EPZP

Flight info

Callsign SPKAS
Flight time N/A
Altitude 3000
Route DCT
Aircraft P208/L-SY/C

Departure

Time 2026-04-19 16:40
Airport Zielona Góra-Przylep Airfield (EPZP)

Arrival

Time N/A
Airport Zielona Góra-Przylep Airfield (EPZP)
Time Latitude Longitude Altitude Speed Heading
2026-04-19 16:13 51.97544 15.46410 255 ft 0 kts 282°
2026-04-19 16:36 51.97544 15.46408 255 ft 0 kts 277°
2026-04-19 16:36 51.97546 15.46390 257 ft 7 kts 286°
2026-04-19 16:37 51.97577 15.46227 255 ft 17 kts 289°
2026-04-19 16:37 51.97646 15.46137 250 ft 12 kts 346°
2026-04-19 16:37 51.97689 15.46140 250 ft 0 kts 60°
2026-04-19 16:37 51.97731 15.46217 250 ft 20 kts 48°
2026-04-19 16:38 51.97830 15.46397 249 ft 20 kts 59°
2026-04-19 16:38 51.97903 15.46620 249 ft 24 kts 58°
2026-04-19 16:38 51.97972 15.46775 247 ft 0 kts 343°
2026-04-19 16:38 51.97986 15.46768 247 ft 6 kts 340°
2026-04-19 16:39 51.97998 15.46700 246 ft 16 kts 242°
2026-04-19 16:39 51.97889 15.46329 246 ft 57 kts 247°
2026-04-19 16:39 51.97716 15.45629 348 ft 71 kts 249°
2026-04-19 16:39 51.97508 15.44860 503 ft 73 kts 246°
2026-04-19 16:40 51.97285 15.44151 713 ft 69 kts 242°
2026-04-19 16:40 51.97300 15.43406 816 ft 76 kts 307°
2026-04-19 16:40 51.97771 15.42941 894 ft 87 kts 341°
2026-04-19 16:40 51.98378 15.42591 977 ft 94 kts 338°
2026-04-19 16:41 51.99006 15.42526 1047 ft 96 kts 36°
2026-04-19 16:41 51.99324 15.43544 1012 ft 105 kts 66°
2026-04-19 16:41 51.99606 15.44647 1018 ft 109 kts 66°
2026-04-19 16:41 51.99923 15.45778 1012 ft 110 kts 64°
2026-04-19 16:42 52.00283 15.46889 955 ft 114 kts 61°
2026-04-19 16:42 52.00631 15.48054 895 ft 108 kts 85°
2026-04-19 16:42 52.00128 15.48797 873 ft 110 kts 155°
2026-04-19 16:42 51.99422 15.49359 812 ft 112 kts 155°
2026-04-19 16:43 51.98855 15.49165 816 ft 96 kts 238°
2026-04-19 16:43 51.98476 15.48190 561 ft 108 kts 238°
2026-04-19 16:43 51.98163 15.47233 321 ft 78 kts 245°
2026-04-19 16:43 51.97964 15.46590 246 ft 50 kts 243°
2026-04-19 16:44 51.97802 15.46014 284 ft 66 kts 247°
2026-04-19 16:44 51.97591 15.45316 424 ft 74 kts 243°
2026-04-19 16:44 51.97324 15.44577 621 ft 77 kts 234°
2026-04-19 16:44 51.97381 15.43768 749 ft 81 kts 322°
2026-04-19 16:45 51.97930 15.43388 827 ft 92 kts 335°
2026-04-19 16:45 51.98527 15.42952 912 ft 97 kts 334°
2026-04-19 16:45 51.99140 15.42793 1044 ft 92 kts 33°
2026-04-19 16:45 51.99357 15.43815 1035 ft 105 kts 96°
2026-04-19 16:46 51.99340 15.45044 933 ft 111 kts 92°
2026-04-19 16:46 51.99441 15.46257 921 ft 108 kts 76°
2026-04-19 16:46 51.99615 15.47457 918 ft 107 kts 81°
2026-04-19 16:46 51.99435 15.48539 1045 ft 97 kts 122°
2026-04-19 16:47 51.99019 15.49430 1145 ft 98 kts 129°
2026-04-19 16:47 51.98584 15.50273 1251 ft 97 kts 142°
2026-04-19 16:47 51.97941 15.50623 1255 ft 104 kts 152°
2026-04-19 16:47 51.97449 15.51306 1365 ft 98 kts 137°
2026-04-19 16:48 51.97087 15.51853 1464 ft 97 kts 138°
2026-04-19 16:48 51.96742 15.52361 1543 ft 97 kts 139°
2026-04-19 16:48 51.96234 15.53086 1666 ft 97 kts 140°
2026-04-19 16:48 51.95711 15.53806 1789 ft 97 kts 141°
2026-04-19 16:49 51.95193 15.54495 1896 ft 98 kts 142°
2026-04-19 16:49 51.94662 15.55180 2014 ft 98 kts 143°
2026-04-19 16:49 51.94123 15.55851 2130 ft 98 kts 144°
2026-04-19 16:49 51.93617 15.56463 2245 ft 98 kts 144°
2026-04-19 16:50 51.93068 15.57116 2355 ft 98 kts 145°
2026-04-19 16:50 51.92511 15.57751 2467 ft 98 kts 146°
2026-04-19 16:50 51.91944 15.58359 2571 ft 96 kts 152°
2026-04-19 16:50 51.91396 15.59023 2650 ft 98 kts 143°
2026-04-19 16:51 51.90858 15.59709 2668 ft 102 kts 135°
2026-04-19 16:51 51.90372 15.60503 2795 ft 98 kts 136°
2026-04-19 16:51 51.90150 15.61549 2722 ft 107 kts 91°
2026-04-19 16:51 51.90110 15.62785 2701 ft 110 kts 95°
2026-04-19 16:52 51.90058 15.64004 2760 ft 107 kts 94°
2026-04-19 16:52 51.90024 15.65234 2714 ft 112 kts 92°
2026-04-19 16:52 51.89993 15.66571 2523 ft 118 kts 92°
2026-04-19 16:52 51.89961 15.67832 2587 ft 110 kts 92°
2026-04-19 16:53 51.89936 15.69079 2564 ft 111 kts 92°
2026-04-19 16:53 51.89912 15.70359 2489 ft 115 kts 93°
2026-04-19 16:53 51.89907 15.70527 2497 ft 113 kts 92°